Shelby, NC

5:56 PM EST on February 13, 2016 (GMT -0500)
Shelby Municipal

Weather History for KEHO - March, 2014

Change the Weather History Date:

Saturday, March 8, 2014

  Actual Average (KHKY) Record (KHKY)
Temperature  
Mean Temperature 48 °F -  
Max Temperature 68 °F 57 °F 81 °F (1974)
Min Temperature 29 °F 34 °F 17 °F (1960)
Degree Days  
Heating Degree Days 16    
Moisture  
Dew Point 36 °F    
Average Humidity 66    
Maximum Humidity 100    
Minimum Humidity 30    
Precipitation  
Precipitation 0.00 in - - ()
Sea Level Pressure  
Sea Level Pressure 30.03 in    
Wind  
Wind Speed 3 mph (SSW)    
Max Wind Speed 10 mph    
Max Gust Speed 18 mph    
Visibility 8 miles    
Events Fog    
Averages and records for this station are not official NWS values.
T = Trace of Precipitation, MM = Missing Value Source: NWS Daily Summary

Daily Weather History Graph

Daily Weather History Graph

Search for Another Location

Airport or City:

Trip Planner

Search our weather history database for the weather conditions in past years. The results will help you decide how hot, cold, wet, or windy it might be!

Date:

Astronomy

Mar. 08, 2014 Rise Set
Actual Time 6:46 AM EST 6:28 PM EST
Civil Twilight 6:21 AM EST 6:53 PM EST
Nautical Twilight 5:52 AM EST 7:22 PM EST
Astronomical Twilight 5:22 AM EST 7:52 PM EST
Moon 11:40 AM EST (3/8) 1:11 AM EST (3/8)
Length of Visible Light 12h 32m
Length of Day
11h 41m
First Quarter, 51% of the Moon is Illuminated
Mar 8
First Quarter
Mar 16
Full
Mar 23
Last Quarter
Mar 30
New
Apr 7
First Quarter

Hourly Weather History & Observations

Time (EST) Temp. Windchill Dew Point Humidity Pressure Visibility Wind Dir Wind Speed Gust Speed Precip Events Conditions
12:15 AM 37.9 °F - 36.7 °F 95% 30.01 in 10.0 mi Calm Calm - N/A   Clear
12:35 AM 40.6 °F 37.5 °F 37.6 °F 89% 30.01 in 10.0 mi South 4.6 mph - N/A   Clear
12:55 AM 36.1 °F - 33.3 °F 89% 30.01 in 10.0 mi Calm Calm - N/A   Clear
1:00 AM 35.1 °F - 32.9 °F 92% 30.01 in 10.0 mi Calm Calm - N/A   Clear
1:15 AM 37.0 °F - 35.8 °F 95% 30.01 in 10.0 mi Calm Calm - N/A   Clear
1:35 AM 37.4 °F - 36.3 °F 96% 30.01 in 10.0 mi Calm Calm - N/A   Clear
1:55 AM 37.4 °F 34.9 °F 36.0 °F 95% 30.01 in 10.0 mi South 3.5 mph - N/A   Clear
2:15 AM 35.1 °F - 33.6 °F 94% 30.01 in 7.0 mi Calm Calm - N/A   Clear
2:35 AM 33.8 °F - 32.5 °F 95% 30.00 in 5.0 mi Calm Calm - N/A   Clear
2:55 AM 34.2 °F 31.2 °F 33.3 °F 97% 30.00 in 0.8 mi SE 3.5 mph - N/A   Mist
3:15 AM 34.3 °F 31.4 °F 33.8 °F 98% 30.00 in 1.5 mi SSE 3.5 mph - N/A   Mist
3:35 AM 34.9 °F - 34.2 °F 97% 30.00 in 2.0 mi Calm Calm - N/A   Clear
3:55 AM 34.3 °F - 33.8 °F 98% 30.00 in 1.5 mi Calm Calm - N/A   Mist
4:15 AM 32.9 °F - 32.4 °F 98% 30.00 in 1.5 mi Calm Calm - N/A   Mist
4:35 AM 31.5 °F - 30.9 °F 98% 30.01 in 1.2 mi Calm Calm - N/A   Mist
4:55 AM 31.3 °F - 30.7 °F 98% 30.02 in 0.5 mi Calm Calm - N/A Fog Light Freezing Fog
5:15 AM 32.2 °F 27.7 °F 32.0 °F 99% 30.02 in 0.5 mi SW 4.6 mph - N/A Fog Fog
5:35 AM 32.0 °F - 31.8 °F 99% 30.02 in 0.8 mi Calm Calm - N/A   Mist
5:55 AM 30.9 °F - 30.4 °F 98% 30.04 in 1.5 mi Calm Calm - N/A   Mist
6:15 AM 33.6 °F 30.6 °F 33.4 °F 99% 30.04 in 4.0 mi South 3.5 mph - N/A   Clear
6:35 AM 31.8 °F - 31.5 °F 99% 30.05 in 5.0 mi Calm Calm - N/A   Clear
6:55 AM 29.7 °F - 29.3 °F 99% 30.06 in 5.0 mi Calm Calm - N/A   Clear
7:15 AM 31.6 °F 28.3 °F 31.5 °F 99% 30.06 in 3.0 mi SE 3.5 mph - N/A   Clear
7:35 AM 32.0 °F 27.5 °F 32.0 °F 100% 30.07 in 5.0 mi SSE 4.6 mph - N/A   Clear
7:55 AM 32.4 °F - 32.2 °F 99% 30.08 in 5.0 mi Calm Calm - N/A   Clear
8:15 AM 34.3 °F - 34.2 °F 99% 30.09 in 7.0 mi Calm Calm - N/A   Clear
8:35 AM 37.4 °F - 37.0 °F 99% 30.09 in 10.0 mi Calm Calm - N/A   Clear
8:55 AM 39.0 °F - 38.7 °F 99% 30.09 in 10.0 mi Calm Calm - N/A   Clear
9:15 AM 41.9 °F - 41.2 °F 97% 30.09 in 10.0 mi Calm Calm - N/A   Clear
9:35 AM 44.4 °F - 41.9 °F 91% 30.09 in 10.0 mi Calm Calm - N/A   Clear
9:55 AM 47.5 °F - 42.8 °F 84% 30.09 in 10.0 mi Calm Calm - N/A   Clear
10:15 AM 49.6 °F - 43.2 °F 78% 30.09 in 10.0 mi Calm Calm - N/A   Clear
10:35 AM 52.2 °F - 43.9 °F 73% 30.09 in 10.0 mi Calm Calm - N/A   Clear
10:55 AM 55.2 °F - 44.6 °F 67% 30.09 in 10.0 mi Calm Calm - N/A   Clear
11:15 AM 56.8 °F - 44.8 °F 64% 30.09 in 10.0 mi SSE 3.5 mph - N/A   Clear
11:35 AM 58.6 °F - 43.9 °F 58% 30.09 in 10.0 mi SSE 5.8 mph - N/A   Clear
11:55 AM 60.1 °F - 44.1 °F 55% 30.08 in 10.0 mi SSW 4.6 mph - N/A   Clear
12:15 PM 61.7 °F - 42.8 °F 50% 30.07 in 10.0 mi SSW 4.6 mph - N/A   Clear
12:30 PM 62.8 °F - 40.6 °F 44% 30.07 in 10.0 mi South 8.1 mph - N/A   Clear
12:55 PM 63.1 °F - 41.5 °F 45% 30.05 in 10.0 mi SSW 5.8 mph - N/A   Clear
1:15 PM 63.7 °F - 38.5 °F 39% 30.04 in 10.0 mi SSW 5.8 mph - N/A   Clear
1:35 PM 65.3 °F - 38.1 °F 37% 30.03 in 10.0 mi West 4.6 mph - N/A   Clear
1:55 PM 66.2 °F - 37.9 °F 35% 30.01 in 10.0 mi West 6.9 mph - N/A   Clear
2:15 PM 66.9 °F - 36.5 °F 33% 30.00 in 10.0 mi SSW 10.4 mph 18.4 mph N/A   Clear
2:40 PM 67.1 °F - 37.0 °F 33% 29.99 in 10.0 mi WSW 10.4 mph 16.1 mph N/A   Clear
2:55 PM 67.5 °F - 36.1 °F 32% 29.99 in 10.0 mi South 9.2 mph - N/A   Clear
3:15 PM 68.0 °F - 37.4 °F 33% 29.99 in 10.0 mi SW 10.4 mph - N/A   Clear
3:35 PM 67.6 °F - 36.3 °F 32% 29.99 in 10.0 mi SSW 8.1 mph - N/A   Clear
3:55 PM 68.0 °F - 36.3 °F 31% 29.99 in 10.0 mi SSW 9.2 mph - N/A   Clear
4:15 PM 68.0 °F - 35.6 °F 30% 29.99 in 10.0 mi SSW 10.4 mph - N/A   Clear
4:35 PM 67.3 °F - 35.8 °F 31% 29.98 in 10.0 mi South 6.9 mph - N/A   Clear
4:55 PM 67.5 °F - 36.7 °F 32% 29.98 in 10.0 mi SSW 8.1 mph - N/A   Clear
5:10 PM 67.3 °F - 36.0 °F 32% 29.98 in 10.0 mi SSW 10.4 mph - N/A   Clear
5:35 PM 67.1 °F - 36.5 °F 32% 29.99 in 10.0 mi SW 10.4 mph - N/A   Clear
5:55 PM 66.2 °F - 36.3 °F 33% 29.99 in 10.0 mi SSW 8.1 mph - N/A   Clear
6:15 PM 65.3 °F - 36.1 °F 34% 29.99 in 10.0 mi South 5.8 mph - N/A   Clear
6:35 PM 64.4 °F - 36.0 °F 35% 30.00 in 10.0 mi South 3.5 mph - N/A   Clear
6:55 PM 63.5 °F - 36.5 °F 37% 30.01 in 10.0 mi South 4.6 mph - N/A   Clear
7:15 PM 63.0 °F - 36.5 °F 37% 30.01 in 4.0 mi South 4.6 mph - N/A   Haze
7:35 PM 61.9 °F - 36.7 °F 39% 30.01 in 10.0 mi South 4.6 mph - N/A   Clear
7:55 PM 61.0 °F - 37.0 °F 41% 30.01 in 10.0 mi South 4.6 mph - N/A   Clear
8:15 PM 60.1 °F - 36.5 °F 41% 30.01 in 10.0 mi South 3.5 mph - N/A   Clear
8:35 PM 59.9 °F - 36.1 °F 41% 30.01 in 10.0 mi South 3.5 mph - N/A   Clear
8:55 PM 59.2 °F - 35.4 °F 41% 30.01 in 10.0 mi South 4.6 mph - N/A   Clear
9:15 PM 58.3 °F - 35.2 °F 42% 30.01 in 10.0 mi SSE 4.6 mph - N/A   Clear
9:35 PM 58.1 °F - 34.7 °F 41% 30.01 in 10.0 mi South 6.9 mph - N/A   Clear
9:55 PM 56.5 °F - 35.1 °F 45% 30.02 in 10.0 mi SSW 5.8 mph - N/A   Clear
10:15 PM 53.1 °F - 35.6 °F 52% 30.02 in 10.0 mi West 4.6 mph - N/A   Clear
10:35 PM 52.2 °F - 36.5 °F 55% 30.02 in 10.0 mi WNW 5.8 mph - N/A   Clear
10:55 PM 52.2 °F - 36.1 °F 54% 30.02 in 10.0 mi West 4.6 mph - N/A   Clear
11:15 PM 52.9 °F - 36.0 °F 53% 30.02 in 10.0 mi West 6.9 mph - N/A   Clear
11:35 PM 52.0 °F - 35.8 °F 54% 30.02 in 10.0 mi West 4.6 mph - N/A   Clear
11:55 PM 51.4 °F - 35.6 °F 55% 30.03 in 10.0 mi West 4.6 mph - N/A   Clear